Olney-Noble, IL

12:14 AM CDT on April 22, 2018 (GMT -0500)
Olney-Noble

Weather History for KOLY - January, 2014

Change the Weather History Date:

Sunday, January 19, 2014

  Actual Average (KEVV) Record (KEVV)
Temperature  
Mean Temperature 30 °F -  
Max Temperature 37 °F 38 °F 69 °F (1951)
Min Temperature 23 °F 22 °F -17 °F (1994)
Degree Days  
Heating Degree Days 35    
Moisture  
Dew Point 24 °F    
Average Humidity 76    
Maximum Humidity 93    
Minimum Humidity 65    
Precipitation  
Precipitation 0.00 in - - ()
Sea Level Pressure  
Sea Level Pressure 29.93 in    
Wind  
Wind Speed 13 mph (SW)    
Max Wind Speed 26 mph    
Max Gust Speed 33 mph    
Visibility 10 miles    
Events      
Averages and records for this station are not official NWS values.
T = Trace of Precipitation, MM = Missing Value Source: NWS Daily Summary

Daily Weather History Graph

Daily Weather History Graph

Search for Another Location

Airport or City:

Astronomy

Jan. 19, 2014 Rise Set
Actual Time 7:07 AM CST 4:59 PM CST
Civil Twilight 6:38 AM CST 5:28 PM CST
Nautical Twilight 6:06 AM CST 6:01 PM CST
Astronomical Twilight 5:34 AM CST 6:32 PM CST
Moon 8:34 PM CST (1/19) 8:40 AM CST (1/19)
Length of Visible Light 10h 49m
Length of Day
9h 52m
Waning Gibbous, 89% of the Moon is Illuminated
Jan 19
Waning Gibbous
Jan 23
Last Quarter
Jan 30
New
Feb 6
First Quarter
Feb 14
Full

Hourly Weather History & Observations

Time (CST) Temp. Windchill Dew Point Humidity Pressure Visibility Wind Dir Wind Speed Gust Speed Precip Events Conditions
12:15 AM 30.2 °F 16.8 °F 26.6 °F 86% 29.89 in 10.0 mi WNW 23.0 mph 31.1 mph N/A   Overcast
12:35 AM 28.4 °F 13.5 °F 24.8 °F 86% 29.91 in 10.0 mi WNW 26.5 mph 33.4 mph N/A   Overcast
12:55 AM 28.4 °F 14.7 °F 23.0 °F 80% 29.92 in 10.0 mi WNW 21.9 mph 26.5 mph N/A   Overcast
1:15 AM 26.6 °F 13.4 °F 23.0 °F 86% 29.93 in 10.0 mi WNW 18.4 mph 24.2 mph N/A   Overcast
1:35 AM 26.6 °F 13.1 °F 23.0 °F 86% 29.95 in 10.0 mi WNW 19.6 mph 25.3 mph N/A   Overcast
1:55 AM 24.8 °F 11.9 °F 21.2 °F 86% 29.96 in 10.0 mi NW 16.1 mph 25.3 mph N/A   Overcast
2:15 AM 24.8 °F 11.1 °F 19.4 °F 80% 29.98 in 10.0 mi WNW 18.4 mph 24.2 mph N/A   Overcast
2:35 AM 23.0 °F 11.1 °F 19.4 °F 86% 29.98 in 10.0 mi NW 12.7 mph 21.9 mph N/A   Overcast
2:55 AM 23.0 °F 11.7 °F 21.2 °F 93% 29.99 in 10.0 mi NW 11.5 mph - N/A   Overcast
3:15 AM 23.0 °F 8.3 °F 19.4 °F 86% 29.99 in 10.0 mi WNW 19.6 mph - N/A   Overcast
3:35 AM 23.0 °F 11.1 °F 19.4 °F 86% 30.00 in 10.0 mi NW 12.7 mph 25.3 mph N/A   Overcast
3:55 AM 23.0 °F 11.1 °F 19.4 °F 86% 30.00 in 10.0 mi NW 12.7 mph 18.4 mph N/A   Overcast
4:15 AM 23.0 °F 10.6 °F 17.6 °F 80% 30.01 in 10.0 mi NW 13.8 mph 19.6 mph N/A   Overcast
4:35 AM 23.0 °F 13.1 °F 19.4 °F 86% 30.02 in 10.0 mi NW 9.2 mph - N/A   Overcast
4:55 AM 23.0 °F 13.9 °F 19.4 °F 86% 30.02 in 10.0 mi NW 8.1 mph - N/A   Overcast
5:15 AM 23.0 °F 11.7 °F 19.4 °F 86% 30.03 in 10.0 mi West 11.5 mph - N/A   Overcast
5:35 AM 23.0 °F 11.1 °F 17.6 °F 80% 30.03 in 10.0 mi WNW 12.7 mph 17.3 mph N/A   Overcast
5:55 AM 23.0 °F 13.9 °F 19.4 °F 86% 30.04 in 10.0 mi WNW 8.1 mph - N/A   Overcast
6:15 AM 23.0 °F 13.1 °F 19.4 °F 86% 30.05 in 10.0 mi West 9.2 mph - N/A   Overcast
6:35 AM 23.0 °F 13.1 °F 19.4 °F 86% 30.05 in 10.0 mi West 9.2 mph - N/A   Overcast
6:55 AM 23.0 °F 13.1 °F 19.4 °F 86% 30.05 in 10.0 mi West 9.2 mph - N/A   Overcast
7:15 AM 23.0 °F 18.4 °F 19.4 °F 86% 30.04 in 10.0 mi WSW 3.5 mph - N/A   Overcast
7:35 AM 23.0 °F 13.9 °F 19.4 °F 86% 30.04 in 10.0 mi WSW 8.1 mph - N/A   Overcast
7:55 AM 23.0 °F 13.1 °F 19.4 °F 86% 30.05 in 10.0 mi WSW 9.2 mph - N/A   Overcast
8:15 AM 23.0 °F 13.1 °F 19.4 °F 86% 30.05 in 10.0 mi WSW 9.2 mph - N/A   Overcast
8:35 AM 23.0 °F 17.0 °F 19.4 °F 86% 30.05 in 10.0 mi WSW 4.6 mph - N/A   Overcast
8:55 AM 24.8 °F 19.1 °F 19.4 °F 80% 30.06 in 10.0 mi SW 4.6 mph - N/A   Overcast
9:15 AM 26.6 °F 22.6 °F 21.2 °F 80% 30.06 in 10.0 mi WSW 3.5 mph - N/A   Overcast
9:35 AM 26.6 °F 21.2 °F 21.2 °F 80% 30.05 in 10.0 mi SSW 4.6 mph - N/A   Mostly Cloudy
9:55 AM 28.4 °F 20.4 °F 21.2 °F 74% 30.04 in 10.0 mi SW 8.1 mph - N/A   Scattered Clouds
10:15 AM 28.4 °F 22.2 °F 21.2 °F 74% 30.04 in 10.0 mi SSW 5.8 mph - N/A   Clear
10:35 AM 30.2 °F 21.9 °F 21.2 °F 69% 30.05 in 10.0 mi SW 9.2 mph 16.1 mph N/A   Clear
10:55 AM 30.2 °F 20.2 °F 21.2 °F 69% 30.04 in 10.0 mi SSW 12.7 mph 16.1 mph N/A   Clear
11:15 AM 32.0 °F 24.8 °F 23.0 °F 69% 30.03 in 10.0 mi SSW 8.1 mph - N/A   Clear
11:35 AM 32.0 °F 24.2 °F 23.0 °F 69% 30.01 in 10.0 mi SSW 9.2 mph 16.1 mph N/A   Clear
11:55 AM 32.0 °F 22.5 °F 23.0 °F 69% 30.00 in 10.0 mi SSW 12.7 mph 18.4 mph N/A   Clear
12:15 PM 33.8 °F 24.8 °F 23.0 °F 65% 29.98 in 10.0 mi SSW 12.7 mph 19.6 mph N/A   Clear
12:35 PM 33.8 °F 25.8 °F 24.8 °F 70% 29.97 in 10.0 mi SW 10.4 mph 17.3 mph N/A   Clear
12:55 PM 33.8 °F 25.3 °F 26.6 °F 75% 29.96 in 10.0 mi SSW 11.5 mph 17.3 mph N/A   Clear
1:15 PM 35.6 °F 27.5 °F 26.6 °F 70% 29.95 in 10.0 mi SSW 11.5 mph 19.6 mph N/A   Clear
1:35 PM 35.6 °F 28.6 °F 26.6 °F 70% 29.93 in 10.0 mi SW 9.2 mph - N/A   Clear
1:55 PM 37.4 °F 32.8 °F 26.6 °F 65% 29.93 in 10.0 mi SSW 5.8 mph 18.4 mph N/A   Clear
2:15 PM 37.4 °F 29.3 °F 26.6 °F 65% 29.91 in 10.0 mi SSW 12.7 mph 16.1 mph N/A   Clear
2:35 PM 37.4 °F 30.3 °F 26.6 °F 65% 29.90 in 10.0 mi SSW 10.4 mph 21.9 mph N/A   Clear
2:55 PM 37.4 °F 29.3 °F 26.6 °F 65% 29.89 in 10.0 mi SSW 12.7 mph 19.6 mph N/A   Clear
3:15 PM 37.4 °F 29.3 °F 26.6 °F 65% 29.88 in 10.0 mi SSW 12.7 mph 19.6 mph N/A   Clear
3:35 PM 37.4 °F 29.8 °F 26.6 °F 65% 29.87 in 10.0 mi South 11.5 mph 18.4 mph N/A   Clear
3:55 PM 37.4 °F 30.8 °F 26.6 °F 65% 29.87 in 10.0 mi South 9.2 mph - N/A   Clear
4:15 PM 37.4 °F 29.8 °F 26.6 °F 65% 29.86 in 10.0 mi SSW 11.5 mph 17.3 mph N/A   Clear
4:35 PM 37.4 °F 31.4 °F 26.6 °F 65% 29.85 in 10.0 mi South 8.1 mph 16.1 mph N/A   Clear
4:55 PM 37.4 °F 30.8 °F 26.6 °F 65% 29.85 in 10.0 mi South 9.2 mph - N/A   Clear
5:15 PM 35.6 °F 28.6 °F 26.6 °F 70% 29.83 in 10.0 mi South 9.2 mph - N/A   Clear
5:35 PM 35.6 °F 28.0 °F 26.6 °F 70% 29.83 in 10.0 mi South 10.4 mph - N/A   Clear
5:55 PM 35.6 °F 28.6 °F 26.6 °F 70% 29.82 in 10.0 mi South 9.2 mph 17.3 mph N/A   Clear
6:15 PM 35.6 °F 28.0 °F 26.6 °F 70% 29.81 in 10.0 mi South 10.4 mph 16.1 mph N/A   Clear
6:55 PM 35.6 °F 27.5 °F 26.6 °F 70% 29.80 in 10.0 mi SSW 11.5 mph 19.6 mph N/A   Clear
7:15 PM 35.6 °F 28.0 °F 26.6 °F 70% 29.80 in 10.0 mi SSW 10.4 mph 18.4 mph N/A   Clear
7:35 PM 35.6 °F 28.0 °F 26.6 °F 70% 29.80 in 10.0 mi SSW 10.4 mph 20.7 mph N/A   Clear
7:55 PM 35.6 °F 30.7 °F 26.6 °F 70% 29.81 in 10.0 mi SSW 5.8 mph 16.1 mph N/A   Clear
8:15 PM 35.6 °F 29.2 °F 28.4 °F 75% 29.80 in 10.0 mi SSW 8.1 mph - N/A   Clear
8:35 PM 35.6 °F 29.2 °F 28.4 °F 75% 29.81 in 10.0 mi SSW 8.1 mph - N/A   Clear
8:55 PM 35.6 °F 28.6 °F 28.4 °F 75% 29.81 in 10.0 mi SSW 9.2 mph - N/A   Clear
9:15 PM 35.6 °F 29.2 °F 28.4 °F 75% 29.80 in 10.0 mi SSW 8.1 mph - N/A   Clear
9:35 PM 35.6 °F 29.2 °F 28.4 °F 75% 29.80 in 10.0 mi SSW 8.1 mph - N/A   Clear
9:55 PM 35.6 °F 28.6 °F 28.4 °F 75% 29.80 in 10.0 mi SSW 9.2 mph 16.1 mph N/A   Clear
10:15 PM 35.6 °F 29.2 °F 28.4 °F 75% 29.80 in 10.0 mi SSW 8.1 mph - N/A   Clear
10:35 PM 35.6 °F 29.2 °F 28.4 °F 75% 29.79 in 10.0 mi SSW 8.1 mph - N/A   Clear
10:55 PM 35.6 °F 29.2 °F 28.4 °F 75% 29.78 in 10.0 mi SSW 8.1 mph - N/A   Clear
11:15 PM 37.4 °F 34.9 °F 28.4 °F 70% 29.78 in 10.0 mi SW 3.5 mph - N/A   Clear
11:35 PM 37.4 °F 30.8 °F 28.4 °F 70% 29.77 in 10.0 mi SSW 9.2 mph 16.1 mph N/A   Clear
11:55 PM 37.4 °F 32.8 °F 28.4 °F 70% 29.76 in 10.0 mi SW 5.8 mph - N/A   Clear